Regional Weather Roundup
Issued by NWS

Home | Current Version | Previous Version | Graphics & Text | Print | Product List | Glossary On
Versions: 1 2 3 4 5 6 7 8 9 10 11 12 13 14 15 16 17 18 19 20 21 22 23 24 25 26 27 28 29 30 31 32 33 34 35 36 37 38 39 40 41 42 43 44 45 46 47 48 49 50
212
ASUS43 KOAX 230102
RWRNE

WEATHER ROUNDUP FOR NEBRASKA
NATIONAL WEATHER SERVICE OMAHA NE
800 PM CDT TUE AUG 22 2017

NOTES: SATELLITE DATA IS BEING USED TO AUGMENT CLOUD COVER ABOVE
       12000 FEET.
       "FAIR" INDICATES FEW OR NO CLOUDS BELOW 12,000 FEET WITH NO
       SIGNIFICANT WEATHER AND/OR OBSTRUCTIONS TO VISIBILITY.


NEZ001>004-019>022-054>056-230200-
NEBRASKA PANHANDLE

CITY           SKY/WX    TMP DP  RH WIND       PRES   REMARKS
SCOTTSBLUFF    CLEAR     80  51  36 SE12      30.12F
ALLIANCE       CLEAR     73  51  46 SE14      30.15F
CHADRON        CLEAR     81  45  28 S12       30.10F
GORDON         FAIR      77  44  29 S6        30.16S
KIMBALL        CLEAR     76  53  43 SE17G24   30.21S
SIDNEY         CLEAR     76  51  41 S18G24    30.20F
$$

NEZ057>060-069>072-079>082-230200-
SOUTHWEST NEBRASKA

CITY           SKY/WX    TMP DP  RH WIND       PRES   REMARKS
NORTH PLATTE   CLEAR     71  58  63 SE7       30.18S
IMPERIAL       CLEAR     73  49  42 SE8       30.18F
LEXINGTON      CLEAR     71  55  58 SE6       30.18F
MCCOOK         CLEAR     73  55  53 E7        30.17F
OGALLALA       CLEAR     75  52  44 SE7       30.18S
$$

NEZ005>010-023>029-035>040-094-230200-
NORTH CENTRAL NEBRASKA

CITY           SKY/WX    TMP DP  RH WIND       PRES   REMARKS
VALENTINE      CLEAR     78  46  32 SE9       30.14F
AINSWORTH      CLEAR     69  57  66 SE6       30.16F
BROKEN BOW     CLEAR     72  53  51 SE6       30.17F
O`NEILL        CLEAR     73  55  53 CALM      30.16F
ORD            CLEAR     71  55  56 S3        30.16S
THEDFORD       CLEAR     76  50  39 S7        30.17F
$$

NEZ041-046>049-061>064-073>077-083>087-230200-
SOUTH CENTRAL NEBRASKA

CITY           SKY/WX    TMP DP  RH WIND       PRES   REMARKS
GRAND ISLAND   CLEAR     69  58  67 E5        30.17F
AURORA         CLEAR     67  61  79 NE5       30.17S
HASTINGS       CLEAR     69  56  62 NE5       30.18F
HEBRON         CLEAR     72  55  55 CALM      30.16R
HOLDREGE       CLEAR     69  58  68 E5        30.19S
KEARNEY        CLEAR     71  56  58 E5        30.18F
$$

NEZ011>018-030>034-042>045-230200-
NORTHEAST NEBRASKA

CITY           SKY/WX    TMP DP  RH WIND       PRES   REMARKS
NORFOLK        CLEAR     69  54  58 NW3       30.14F
ALBION         CLEAR     70  58  66 CALM      30.17S
BLAIR          CLEAR     69  55  60 NW5       30.15S
COLUMBUS       CLEAR     69  59  70 NE3       30.17F
FREMONT        CLEAR     69  54  57 CALM      30.16S
TEKAMAH        CLEAR     67  59  75 NW6       30.13F
WAYNE          CLEAR     67  61  80 CALM      30.15S
$$

NEZ050>053-065>068-078-088>093-230200-
SOUTHEAST NEBRASKA

CITY           SKY/WX    TMP DP  RH WIND       PRES   REMARKS
LINCOLN        CLEAR     68  55  63 N7        30.16S
OMAHA EPPLEY   PTCLDY    69  56  62 NW5       30.13S
BEATRICE       CLEAR     69  55  59 N7        30.15R
FALLS CITY     CLEAR     68  52  56 N5        30.12S
NEBRASKA CITY  CLEAR     68  56  65 N6        30.14S
PLATTSMOUTH    CLEAR     67  54  63 NW7       30.14S
$$

NEZ044-045-051>053-067-230200-
OMAHA AREA

CITY           SKY/WX    TMP DP  RH WIND       PRES   REMARKS
OMAHA EPPLEY   PTCLDY    69  56  62 NW5       30.13S
BLAIR          CLEAR     69  55  60 NW5       30.15S
FREMONT        CLEAR     69  54  57 CALM      30.16S
MILLARD        CLEAR     72  52  49 NW7       30.14S
OFFUTT AFB     CLEAR     70  51  50 N7        30.13S
PLATTSMOUTH    CLEAR     67  54  63 NW7       30.14S
WAHOO          FAIR      67  56  68 CALM      30.15S
$$




USA.gov is the U.S. government's official web portal to all federal, state and local government web resources and services.